KB2UHF-8 Weather Reports


Display with metric or nautical units.
time (UTC)temp
F
wind
direction
speed
MPH
gust
MPH
rain 1hr
in
rain 24hr
in
rain mn
in
humidity
%
barometer
mb
20260901100517 70 0.0 0.0 0.00 0.00 0.00 97 1014.4
20260901095538 71 0.0 0.0 0.00 0.00 0.00 97 1014.5
20260901094517 71 0.0 0.0 0.00 0.00 0.00 98 1014.4
20260901093537 71 0.0 0.0 0.00 0.00 0.00 98 1014.3
20260901092517 70 0.0 0.0 0.00 0.00 0.00 98 1014.2
20260901091517 70 0.0 0.0 0.00 0.00 0.00 97 1014.3
20260901090517 70 0.0 0.0 0.00 0.00 0.00 97 1014.2
20260901085516 71 0.0 0.0 0.00 0.00 0.00 97 1014.2
20260901084517 72 0.0 0.0 0.00 0.00 0.00 97 1014.2
20260901083517 72 0.0 0.0 0.00 0.00 0.00 98 1014.3
20260901082517 72 0.0 0.0 0.00 0.00 0.00 97 1014.4
20260901081517 73 0.0 0.0 0.00 0.00 0.00 98 1014.3
20260901080517 72 0.0 0.0 0.00 0.00 0.00 97 1014.3
20260901075517 72 0.0 0.0 0.00 0.00 0.00 98 1014.4
20260901074516 71 0.0 0.0 0.00 0.00 0.00 97 1014.7
20260901073517 72 0.0 0.0 0.00 0.00 0.00 96 1014.6
20260901072516 73 0.0 0.0 0.00 0.00 0.00 97 1014.7
20260901071616 73 0.0 0.0 0.00 0.00 0.00 97 1014.6
20260901070516 73 0.0 0.0 0.00 0.00 0.00 97 1014.4
20260901065517 73 0.0 0.0 0.00 0.00 0.00 97 1014.4
20260901064517 73 0.0 0.0 0.00 0.00 0.00 96 1014.5
20260901063537 73 0.0 0.0 0.00 0.00 0.00 97 1014.5
20260901062516 73 0.0 0.0 0.00 0.00 0.00 97 1014.6
20260901061536 73 0.0 0.0 0.00 0.00 0.00 97 1014.4
20260901060517 73 0.0 0.0 0.00 0.00 0.00 97 1014.3
20260901055517 73 0.0 0.0 0.00 0.00 0.00 96 1014.3
20260901054516 74 0.0 0.0 0.00 0.00 0.00 96 1014.4
20260901053516 74 0.0 0.0 0.00 0.00 0.00 96 1014.2
20260901052516 74 0.0 0.0 0.00 0.00 0.00 96 1014.3
20260901051516 74 0.0 0.0 0.00 0.00 0.00 96 1014.3
20260901050516 74 0.0 0.0 0.00 0.00 0.00 96 1014.2
20260901045515 74 0.0 0.0 0.00 0.00 0.00 95 1013.9
20260901044515 74 0.0 0.0 0.00 0.00 0.00 95 1013.9
20260901043517 74 0.0 0.0 0.00 0.00 0.00 95 1013.8
20260901042517 75 0.0 1.0 0.00 0.00 0.00 94 1013.8
20260901041517 75 0.0 0.0 0.00 0.00 0.00 94 1013.9
20260901040517 75 0.0 0.0 0.00 0.00 0.00 94 1014.0
20260901035517 75 0.0 0.0 0.00 0.00 0.00 93 1014.1
20260901034517 76 0.0 1.0 0.00 0.00 0.00 93 1014.0
20260901033517 76 0.0 3.0 0.00 0.00 0.00 92 1014.0
20260901032517 76 180 2.0 4.0 0.00 0.00 0.00 92 1014.1
20260901031517 76 0.0 0.0 0.00 0.00 0.00 92 1014.1
20260901030517 76 0.0 0.0 0.00 0.00 0.00 92 1014.1
20260901025517 77 0.0 0.0 0.00 0.00 0.00 91 1014.0
20260901024538 77 0.0 0.0 0.00 0.00 0.00 90 1014.2
20260901023537 77 0.0 0.0 0.00 0.00 0.00 90 1014.0
20260901022517 77 0.0 0.0 0.00 0.00 0.00 89 1014.0
20260901021517 77 0.0 0.0 0.00 0.00 0.00 89 1014.1
20260901020517 78 0.0 0.0 0.00 0.00 0.00 88 1013.9
20260901015517 78 0.0 0.0 0.00 0.00 0.00 88 1013.9
20260901014517 78 0.0 0.0 0.00 0.00 0.00 87 1013.8
20260901013517 78 0.0 0.0 0.00 0.00 0.00 86 1013.6
20260901012517 79 0.0 0.0 0.00 0.00 0.00 85 1013.5
20260901011517 80 203 1.0 3.0 0.00 0.00 0.00 84 1013.3
20260901010517 80 203 1.0 4.0 0.00 0.00 0.00 83 1013.4
20260901005537 81 203 1.0 4.0 0.00 0.00 0.00 82 1013.3
20260901004517 82 0.0 0.0 0.00 0.00 0.00 81 1013.4
20260901003517 82 0.0 0.0 0.00 0.00 0.00 80 1013.4
20260901002517 83 0.0 2.0 0.00 0.00 0.00 80 1013.4
20260901001518 83 0.0 3.0 0.00 0.00 0.00 79 1013.3
20260901000537 83 0.0 0.0 0.00 0.00 0.00 80 1013.2
20260831235517 83 248 2.0 4.0 0.00 0.17 0.00 79 1013.2
20260831234537 84 0.0 3.0 0.00 0.17 0.00 78 1013.2
20260831233518 84 225 1.0 4.0 0.00 0.17 0.00 79 1013.2
20260831232517 84 225 2.0 5.0 0.00 0.17 0.00 77 1013.1
20260831231517 85 248 3.0 7.0 0.00 0.17 0.00 75 1012.9
20260831230517 86 225 2.0 6.0 0.00 0.17 0.00 77 1012.9
20260831225517 86 225 1.0 9.0 0.00 0.17 0.00 78 1012.7
20260831224537 84 225 2.0 5.0 0.00 0.17 0.00 81 1012.6
20260831223517 85 225 1.0 5.0 0.00 0.17 0.00 79 1012.6
20260831222537 86 225 1.0 4.0 0.00 0.17 0.00 78 1012.9
20260831221516 85 203 1.0 3.0 0.00 0.17 0.00 80 1012.7
20260831220517 85 225 3.0 7.0 0.00 0.17 0.00 78 1012.9
20260831215516 87 225 3.0 6.0 0.00 0.17 0.00 76 1012.7
20260831215016 87 248 2.0 4.0 0.00 0.17 0.00 76 1012.6
20260831214016 87 158 3.0 8.0 0.00 0.17 0.00 76 1012.4
20260831213017 86 203 4.0 11.0 0.00 0.17 0.00 77 1012.2
20260831212036 86 158 5.0 9.0 0.00 0.17 0.00 79 1012.2
20260831211037 85 158 4.0 9.0 0.00 0.17 0.00 84 1012.0
20260831210018 83 180 3.0 6.0 0.00 0.17 0.00 83 1011.9
20260831205018 83 158 1.0 5.0 0.00 0.17 0.00 82 1011.4
20260831204016 84 180 2.0 6.0 0.00 0.17 0.00 80 1011.7
20260831203118 84 180 1.0 4.0 0.00 0.17 0.00 80 1011.8
20260831202017 84 158 2.0 5.0 0.00 0.17 0.00 81 1011.8
20260831201037 84 158 1.0 5.0 0.00 0.17 0.00 80 1011.9
20260831200016 84 248 4.0 10.0 0.00 0.17 0.00 76 1012.8
20260831195018 86 248 2.0 8.0 0.00 0.17 0.00 75 1012.8
20260831194016 88 225 2.0 7.0 0.00 0.17 0.00 71 1012.8
20260831193018 87 203 2.0 7.0 0.00 0.17 0.00 74 1012.6
20260831192016 87 225 1.0 5.0 0.00 0.17 0.00 74 1012.6
20260831191017 87 180 1.0 4.0 0.00 0.17 0.00 72 1012.5
20260831190016 87 180 1.0 4.0 0.00 0.17 0.00 73 1012.5
20260831185018 87 203 1.0 4.0 0.00 0.17 0.00 73 1012.6
20260831184016 88 203 1.0 5.0 0.00 0.17 0.00 72 1012.6
20260831183016 87 180 1.0 6.0 0.00 0.17 0.00 72 1012.7
20260831182016 87 180 3.0 5.0 0.00 0.17 0.00 74 1012.8
20260831181016 86 225 2.0 7.0 0.00 0.17 0.00 74 1012.9
20260831180016 86 248 3.0 7.0 0.00 0.17 0.00 71 1012.7
20260831175016 87 203 1.0 3.0 0.00 0.17 0.00 72 1013.0
20260831174016 85 158 3.0 6.0 0.00 0.17 0.00 75 1013.1
20260831173037 84 225 2.0 5.0 0.00 0.17 0.00 75 1013.0
20260831172016 84 203 2.0 5.0 0.00 0.17 0.00 75 1013.1
20260831171136 84 225 4.0 9.0 0.00 0.17 0.00 75 1013.3
20260831170018 84 180 2.0 6.0 0.00 0.17 0.00 76 1013.3
20260831165016 83 225 2.0 5.0 0.00 0.17 0.00 77 1013.3
20260831164016 83 203 2.0 6.0 0.00 0.17 0.00 76 1013.2
20260831163016 82 225 2.0 5.0 0.00 0.17 0.00 78 1013.1
20260831162016 82 248 3.0 7.0 0.00 0.17 0.00 78 1012.9
20260831161016 81 225 3.0 8.0 0.00 0.17 0.00 79 1012.9
20260831160038 82 270 3.0 8.0 0.00 0.17 0.00 77 1012.8
20260831155136 81 225 3.0 5.0 0.00 0.17 0.00 77 1012.7
20260831154016 81 225 2.0 5.0 0.00 0.17 0.00 80 1012.4
20260831153016 80 225 4.0 9.0 0.00 0.17 0.00 79 1012.2
20260831152016 80 225 3.0 9.0 0.00 0.17 0.00 80 1012.3
20260831151016 79 248 5.0 10.0 0.00 0.17 0.00 80 1012.0
20260831150016 78 225 3.0 10.0 0.00 0.17 0.00 81 1011.9
20260831145016 78 248 3.0 6.0 0.00 0.17 0.00 83 1011.9
20260831144016 77 248 4.0 9.0 0.00 0.17 0.00 84 1011.9
20260831143036 76 225 5.0 11.0 0.00 0.17 0.00 84 1011.8
20260831142016 75 225 3.0 8.0 0.00 0.17 0.00 86 1011.8
20260831141016 75 225 1.0 5.0 0.00 0.17 0.00 85 1011.6
20260831140016 75 225 3.0 6.0 0.00 0.17 0.00 85 1011.5
20260831135016 75 225 1.0 4.0 0.00 0.17 0.00 87 1011.6
20260831134016 74 225 2.0 6.0 0.00 0.17 0.00 86 1011.6
20260831133016 73 225 1.0 5.0 0.00 0.17 0.00 88 1011.4
20260831132016 73 225 2.0 5.0 0.00 0.17 0.00 87 1011.5
20260831131016 74 225 2.0 6.0 0.00 0.17 0.00 87 1011.4
20260831130036 74 203 2.0 6.0 0.00 0.17 0.00 87 1011.3
20260831125116 73 0.0 3.0 0.00 0.17 0.00 89 1011.3
20260831124016 73 0.0 0.0 0.00 0.17 0.00 89 1011.5
20260831123016 72 0.0 0.0 0.00 0.17 0.00 89 1011.2
20260831122016 72 135 1.0 3.0 0.00 0.17 0.00 90 1011.1
20260831121016 71 0.0 2.0 0.00 0.17 0.00 91 1011.0
20260831120017 70 158 1.0 3.0 0.00 0.17 0.00 92 1010.9
20260831115016 70 180 1.0 2.0 0.00 0.17 0.00 92 1010.9
20260831114016 70 180 1.0 4.0 0.00 0.17 0.00 92 1010.6
20260831113036 70 203 1.0 3.0 0.00 0.17 0.00 92 1010.8
20260831112016 70 203 1.0 5.0 0.00 0.17 0.00 92 1011.0
20260831111017 70 180 1.0 4.0 0.00 0.17 0.00 92 1011.0
20260831110016 70 180 1.0 4.0 0.00 0.17 0.00 92 1011.0
20260831105016 70 180 2.0 5.0 0.00 0.17 0.00 92 1010.9
20260831104037 70 180 1.0 4.0 0.00 0.17 0.00 92 1011.0
20260831103016 70 180 1.0 5.0 0.00 0.17 0.00 92 1011.0
20260831102037 70 180 2.0 4.0 0.00 0.17 0.00 92 1011.0